Terminal Aerodrome Forecast
Issued by NWS

Current Version | Previous Version | Graphics & Text | Print | Product List | Glossary On
Versions: 1 2 3 4 5 6 7 8 9 10 11 12 13 14 15 16 17 18 19 20 21 22 23 24 25 26
000
FTUS41 KILN 012248 AAD
TAFLUK
TAF AMD
KLUK 012248Z 0123/0218 22006KT 5SM -TSRA BR OVC040CB
      TEMPO 0123/0124 18015G30KT 1SM +TSRAGR BR OVC022CB
     FM020100 21003KT P6SM VCSH BKN050
     FM021100 29004KT P6SM SCT025 BKN035
     FM021500 32005KT P6SM BKN025=

USA.gov is the U.S. government's official web portal to all federal, state and local government web resources and services.